TimeEDT,TemperatureF,Dew PointF,Humidity,Sea Level PressureIn,VisibilityMPH,Wind Direction,Wind SpeedMPH,Gust SpeedMPH,PrecipitationIn,Events,Conditions,WindDirDegrees,DateUTC
12:15 AM,75.2,69.8,83,29.92,4.0,SSW,12.7,18.4,N/A,Rain,Heavy Rain,200,2012-09-18 04:15:00
12:35 AM,73.4,71.6,94,29.92,3.0,South,17.3,20.7,N/A,Rain-Thunderstorm,Heavy Thunderstorms and Rain,190,2012-09-18 04:35:00
12:55 AM,73.4,71.6,94,29.89,10.0,South,6.9,-,N/A,Rain-Thunderstorm,Light Thunderstorms and Rain,190,2012-09-18 04:55:00
1:15 AM,73.4,71.6,94,29.88,10.0,South,6.9,-,N/A,Rain,Light Rain,180,2012-09-18 05:15:00
1:35 AM,73.4,71.6,94,29.87,10.0,South,5.8,-,N/A,Rain,Light Rain,170,2012-09-18 05:35:00
1:55 AM,73.4,71.6,94,29.87,10.0,South,5.8,-,N/A,Rain,Rain,170,2012-09-18 05:55:00
2:15 AM,73.4,71.6,94,29.87,10.0,South,8.1,-,N/A,Rain,Light Rain,180,2012-09-18 06:15:00
2:35 AM,73.4,71.6,94,29.87,10.0,South,8.1,-,N/A,,Overcast,180,2012-09-18 06:35:00
2:55 AM,73.4,71.6,94,29.86,10.0,South,8.1,-,N/A,,Overcast,180,2012-09-18 06:55:00
3:15 AM,73.4,71.6,94,29.86,10.0,South,9.2,-,N/A,,Overcast,180,2012-09-18 07:15:00
3:35 AM,73.4,71.6,94,29.85,10.0,South,9.2,-,N/A,,Overcast,180,2012-09-18 07:35:00
3:55 AM,73.4,71.6,94,29.85,10.0,South,11.5,16.1,N/A,,Overcast,190,2012-09-18 07:55:00
4:35 AM,73.4,73.4,100,29.84,10.0,South,6.9,-,N/A,,Overcast,190,2012-09-18 08:35:00
4:55 AM,73.4,71.6,94,29.83,10.0,South,6.9,-,N/A,,Overcast,180,2012-09-18 08:55:00
5:15 AM,73.4,71.6,94,29.83,10.0,South,9.2,-,N/A,,Overcast,180,2012-09-18 09:15:00
5:35 AM,73.4,71.6,94,29.82,10.0,South,6.9,-,N/A,,Overcast,180,2012-09-18 09:35:00
5:55 AM,73.4,71.6,94,29.82,10.0,South,8.1,-,N/A,Rain,Light Rain,180,2012-09-18 09:55:00
6:15 AM,73.4,73.4,100,29.82,10.0,South,8.1,-,N/A,,Overcast,180,2012-09-18 10:15:00
6:35 AM,73.4,73.4,100,29.82,7.0,South,8.1,-,N/A,Rain,Light Rain,190,2012-09-18 10:35:00
9:55 AM,77.0,73.4,89,29.83,10.0,SSW,8.1,-,N/A,Rain,Light Rain,210,2012-09-18 13:55:00
10:55 AM,73.4,73.4,100,29.83,7.0,SSW,10.4,-,N/A,Rain,Rain,210,2012-09-18 14:55:00
11:15 AM,73.4,71.6,94,29.82,7.0,SSW,11.5,-,N/A,Rain,Rain,210,2012-09-18 15:15:00
11:35 AM,73.4,71.6,94,29.82,10.0,SSW,10.4,-,N/A,Rain,Light Rain,200,2012-09-18 15:35:00
11:55 AM,73.4,71.6,94,29.81,10.0,SSW,9.2,-,N/A,Rain,Light Rain,210,2012-09-18 15:55:00
12:15 PM,73.4,71.6,94,29.80,10.0,SSW,9.2,-,N/A,,Scattered Clouds,210,2012-09-18 16:15:00
12:35 PM,73.4,71.6,94,29.80,10.0,SSW,9.2,16.1,N/A,,Scattered Clouds,210,2012-09-18 16:35:00
12:55 PM,73.4,71.6,94,29.81,10.0,SW,9.2,-,N/A,,Scattered Clouds,220,2012-09-18 16:55:00
1:15 PM,77.0,71.6,83,29.82,10.0,SSW,11.5,16.1,N/A,,Mostly Cloudy,210,2012-09-18 17:15:00
1:35 PM,77.0,71.6,83,29.83,10.0,SSW,12.7,16.1,N/A,,Mostly Cloudy,200,2012-09-18 17:35:00
1:55 PM,77.0,69.8,78,29.82,10.0,SW,10.4,-,N/A,,Overcast,230,2012-09-18 17:55:00
2:15 PM,77.0,69.8,78,29.81,10.0,SSW,10.4,-,N/A,,Overcast,210,2012-09-18 18:15:00
2:35 PM,78.8,69.8,74,29.80,10.0,SSW,12.7,16.1,N/A,,Mostly Cloudy,210,2012-09-18 18:35:00
2:55 PM,78.8,69.8,74,29.80,10.0,SSW,11.5,18.4,N/A,,Overcast,200,2012-09-18 18:55:00
3:15 PM,78.8,69.8,74,29.78,10.0,WSW,9.2,19.6,N/A,,Mostly Cloudy,240,2012-09-18 19:15:00
3:35 PM,80.6,69.8,70,29.77,10.0,SW,9.2,-,N/A,,Mostly Cloudy,230,2012-09-18 19:35:00
3:55 PM,80.6,69.8,70,29.76,10.0,SSW,8.1,16.1,N/A,,Mostly Cloudy,210,2012-09-18 19:55:00
4:15 PM,80.6,68.0,65,29.75,10.0,SW,10.4,16.1,N/A,,Mostly Cloudy,220,2012-09-18 20:15:00
4:35 PM,78.8,68.0,69,29.76,10.0,SSW,10.4,-,N/A,,Overcast,210,2012-09-18 20:35:00
4:55 PM,80.6,69.8,70,29.76,10.0,WSW,5.8,-,N/A,,Mostly Cloudy,240,2012-09-18 20:55:00
5:15 PM,75.2,68.0,78,29.81,1.5,WNW,10.4,36.8,N/A,Rain,Heavy Rain,300,2012-09-18 21:15:00
5:35 PM,71.6,69.8,94,29.79,7.0,WNW,4.6,-,N/A,Rain,Light Rain,290,2012-09-18 21:35:00
5:55 PM,71.6,69.8,94,29.79,10.0,SSW,5.8,-,N/A,,Mostly Cloudy,210,2012-09-18 21:55:00
6:15 PM,71.6,69.8,94,29.79,10.0,WSW,3.5,-,N/A,,Scattered Clouds,240,2012-09-18 22:15:00
6:35 PM,73.4,71.6,94,29.80,10.0,WSW,4.6,-,N/A,,Scattered Clouds,250,2012-09-18 22:35:00
6:55 PM,73.4,71.6,94,29.80,10.0,West,5.8,-,N/A,,Clear,260,2012-09-18 22:55:00
7:15 PM,73.4,69.8,88,29.81,10.0,West,6.9,-,N/A,,Mostly Cloudy,270,2012-09-18 23:15:00
7:35 PM,73.4,69.8,88,29.82,10.0,West,4.6,-,N/A,,Mostly Cloudy,270,2012-09-18 23:35:00
8:15 PM,71.6,69.8,94,29.82,10.0,WNW,3.5,-,N/A,,Clear,290,2012-09-19 00:15:00
8:35 PM,71.6,69.8,94,29.83,10.0,Calm,Calm,-,N/A,,Clear,0,2012-09-19 00:35:00
8:55 PM,71.6,69.8,94,29.83,10.0,Calm,Calm,-,N/A,,Clear,0,2012-09-19 00:55:00
9:15 PM,69.8,69.8,100,29.84,10.0,Calm,Calm,-,N/A,,Clear,0,2012-09-19 01:15:00
9:35 PM,69.8,69.8,100,29.84,10.0,Calm,Calm,-,N/A,,Clear,0,2012-09-19 01:35:00
9:55 PM,69.8,68.0,94,29.85,0.8,Calm,Calm,-,N/A,,Mist,0,2012-09-19 01:55:00
10:15 PM,69.8,68.0,94,29.87,7.0,Calm,Calm,-,N/A,,Clear,0,2012-09-19 02:15:00
10:35 PM,69.8,69.8,100,29.87,10.0,Calm,Calm,-,N/A,,Clear,0,2012-09-19 02:35:00
10:55 PM,69.8,69.8,100,29.88,10.0,Calm,Calm,-,N/A,,Clear,0,2012-09-19 02:55:00
11:15 PM,69.8,68.0,94,29.89,10.0,SW,3.5,-,N/A,,Clear,230,2012-09-19 03:15:00
11:35 PM,69.8,68.0,94,29.90,10.0,WSW,3.5,-,N/A,,Clear,240,2012-09-19 03:35:00
11:55 PM,69.8,68.0,94,29.91,10.0,WSW,3.5,-,N/A,,Clear,240,2012-09-19 03:55:00